Weather History for Versailles, OH

Change the Weather History Date:

Friday, January 17, 2014

  Actual Average (KDAY) Record (KDAY)
Temperature  
Mean Temperature 18 °F 27 °F  
Max Temperature 30 °F 35 °F 63 °F (1952)
Min Temperature 6 °F 20 °F -21 °F (1977)
Degree Days  
Heating Degree Days 47 38  
Month to date heating degree days 640  
Since 1 July heating degree days 2799  
Cooling Degree Days 0 0  
Month to date cooling degree days 0  
Year to date cooling degree days 0  
Moisture  
Dew Point 17 °F    
Average Humidity 87    
Maximum Humidity 100    
Minimum Humidity 67    
Precipitation  
Precipitation 0.00 in 0.09 in 1.17 in (1932)
Month to date precipitation 1.58  
Year to date precipitation 1.58  
Snow  
Snow 0.00 in 0.30 in 4.90 in (1978)
Month to date snowfall 4.3  
Since 1 July snowfall 9.8  
Snow Depth -    
Sea Level Pressure  
Sea Level Pressure 29.84 in    
Wind  
Wind Speed - (North)    
Max Wind Speed -    
Max Gust Speed -    
Visibility 8 miles    
Events Snow    
T = Trace of Precipitation, MM = Missing Value Source: NWS Daily Summary

Daily Weather History Graph

Daily Weather History Graph

Search for Another Location

Airport:

Trip Planner

Search our weather history database for the weather conditions in past years. The results will help you decide how hot, cold, wet, or windy it might be!

Date:

Astronomy

Jan. 17, 2014 Rise Set
Actual Time 7:57 AM EST 5:39 PM EST
Civil Twilight 7:28 AM EST 6:08 PM EST
Nautical Twilight 6:54 AM EST 6:42 PM EST
Astronomical Twilight 6:22 AM EST 7:14 PM EST
Moon 7:25 PM EST (1/17) 8:25 AM EST (1/17)
Length of Visible Light 10h 40m
Length of Day
9h 41m
Full, 98% of the Moon is Illuminated
Jan 17
Full
Jan 24
Last Quarter
Jan 30
New
Feb 6
First Quarter
Feb 14
Full

Hourly Weather History & Observations

Time (EST) Temp. Dew Point Humidity Pressure Visibility Wind Dir Wind Speed Gust Speed Precip Events Conditions
12:15 AM 28.4 °F 24.8 °F 86% 29.73 in 10.0 mi North - - N/A   Clear
12:35 AM 28.4 °F 23.0 °F 80% 29.73 in 10.0 mi North - - N/A   Clear
12:55 AM 28.4 °F 23.0 °F 80% 29.73 in 10.0 mi North - - N/A   Clear
1:15 AM 26.6 °F 23.0 °F 86% 29.73 in 10.0 mi North - - N/A   Clear
1:35 AM 26.6 °F 23.0 °F 86% 29.73 in 10.0 mi North - - N/A   Clear
1:55 AM 26.6 °F 23.0 °F 86% 29.73 in 10.0 mi North - - N/A   Mostly Cloudy
2:15 AM 26.6 °F 24.8 °F 93% 29.73 in 10.0 mi North - - N/A   Overcast
2:35 AM 26.6 °F 26.6 °F 100% 29.73 in 10.0 mi North - - N/A   Overcast
2:55 AM 26.6 °F 26.6 °F 100% 29.73 in 10.0 mi North - - N/A   Overcast
3:15 AM 28.4 °F 26.6 °F 93% 29.73 in 10.0 mi North - - N/A   Overcast
3:35 AM 28.4 °F 26.6 °F 93% 29.73 in 10.0 mi North - - N/A   Overcast
3:55 AM 28.4 °F 26.6 °F 93% 29.73 in 10.0 mi North - - N/A   Overcast
4:15 AM 28.4 °F 26.6 °F 93% 29.72 in 10.0 mi North - - N/A   Overcast
4:35 AM 28.4 °F 26.6 °F 93% 29.72 in 10.0 mi North - - N/A   Overcast
4:55 AM 28.4 °F 26.6 °F 93% 29.71 in 10.0 mi North - - N/A   Overcast
5:15 AM 28.4 °F 26.6 °F 93% 29.71 in 10.0 mi North - - N/A   Overcast
5:35 AM 28.4 °F 26.6 °F 93% 29.72 in 10.0 mi North - - N/A Snow Light Snow
5:55 AM 28.4 °F 28.4 °F 100% 29.72 in 5.0 mi North - - N/A   Overcast
6:15 AM 28.4 °F 28.4 °F 100% 29.72 in 5.0 mi North - - N/A   Overcast
6:35 AM 28.4 °F 28.4 °F 100% 29.72 in 7.0 mi North - - N/A   Overcast
6:55 AM 30.2 °F 30.2 °F 100% 29.72 in 7.0 mi North - - N/A   Overcast
7:15 AM 30.2 °F 30.2 °F 100% 29.72 in 7.0 mi North - - N/A   Overcast
7:35 AM 30.2 °F 30.2 °F 100% 29.72 in 7.0 mi North - - N/A   Overcast
7:55 AM 30.2 °F 30.2 °F 100% 29.73 in 10.0 mi North - - N/A   Overcast
8:15 AM 30.2 °F 30.2 °F 100% 29.73 in 10.0 mi North - - N/A   Overcast
8:35 AM 30.2 °F 30.2 °F 100% 29.73 in 7.0 mi North - - N/A Snow Light Snow
8:55 AM 30.2 °F 30.2 °F 100% 29.74 in 7.0 mi North - - N/A Snow Light Snow
9:15 AM 30.2 °F 30.2 °F 100% 29.75 in 4.0 mi North - - N/A Snow Light Snow
9:35 AM 26.6 °F 23.0 °F 86% 29.77 in 3.0 mi North - - N/A Snow Light Snow
9:55 AM 24.8 °F 23.0 °F 93% 29.78 in 1.5 mi North - - N/A Snow Light Snow
10:15 AM 24.8 °F 21.2 °F 86% 29.79 in 1.8 mi North - - N/A Snow Light Snow
10:35 AM 23.0 °F 21.2 °F 93% 29.80 in 1.2 mi North - - N/A Snow Light Snow
10:55 AM 23.0 °F 21.2 °F 93% 29.81 in 0.8 mi North - - N/A Snow Snow
11:15 AM 23.0 °F 21.2 °F 93% 29.81 in 1.2 mi North - - N/A Snow Light Snow
11:35 AM 23.0 °F 21.2 °F 93% 29.82 in 2.0 mi North - - N/A Snow Light Snow
11:55 AM 21.2 °F 19.4 °F 93% 29.82 in 3.0 mi North - - N/A Snow Light Snow
12:15 PM 21.2 °F 17.6 °F 86% 29.81 in 10.0 mi North - - N/A   Scattered Clouds
12:35 PM 21.2 °F 17.6 °F 86% 29.81 in 10.0 mi North - - N/A   Mostly Cloudy
12:55 PM 19.4 °F 17.6 °F 93% 29.81 in 2.0 mi North - - N/A Snow Light Snow
1:15 PM 19.4 °F 15.8 °F 86% 29.82 in 1.8 mi North - - N/A Snow Light Snow
1:35 PM 19.4 °F 15.8 °F 86% 29.82 in 1.2 mi North - - N/A Snow Light Snow
1:55 PM 19.4 °F 15.8 °F 86% 29.83 in 3.0 mi North - - N/A   Overcast
2:15 PM 19.4 °F 14.0 °F 80% 29.84 in 1.8 mi North - - N/A Snow Light Snow
2:35 PM 17.6 °F 12.2 °F 79% 29.85 in 10.0 mi North - - N/A   Overcast
2:55 PM 17.6 °F 12.2 °F 79% 29.86 in 4.0 mi North - - N/A Snow Light Snow
3:15 PM 17.6 °F 12.2 °F 79% 29.87 in 4.0 mi North - - N/A Snow Light Snow
3:35 PM 15.8 °F 10.4 °F 79% 29.88 in 5.0 mi North - - N/A Snow Light Snow
3:55 PM 15.8 °F 10.4 °F 79% 29.90 in 4.0 mi North - - N/A Snow Light Snow
4:15 PM 14.0 °F 10.4 °F 86% 29.91 in 4.0 mi North - - N/A Snow Light Snow
4:35 PM 14.0 °F 10.4 °F 86% 29.92 in 7.0 mi North - - N/A   Mostly Cloudy
4:55 PM 14.0 °F 8.6 °F 79% 29.93 in 10.0 mi North - - N/A   Overcast
5:15 PM 14.0 °F 5.0 °F 67% 29.94 in 10.0 mi North - - N/A   Mostly Cloudy
5:35 PM 12.2 °F 5.0 °F 73% 29.95 in 10.0 mi North - - N/A   Mostly Cloudy
5:55 PM 12.2 °F 5.0 °F 73% 29.96 in 10.0 mi North - - N/A   Overcast
6:15 PM 12.2 °F 5.0 °F 73% 29.97 in 10.0 mi North - - N/A   Overcast
6:35 PM 12.2 °F 8.6 °F 85% 29.98 in 4.0 mi North - - N/A Snow Light Snow
6:55 PM 10.4 °F 5.0 °F 79% 29.99 in 10.0 mi North - - N/A   Mostly Cloudy
7:15 PM 10.4 °F 5.0 °F 79% 29.99 in 10.0 mi North - - N/A   Clear
7:35 PM 10.4 °F 3.2 °F 73% 30.00 in 10.0 mi North - - N/A   Mostly Cloudy
7:55 PM 8.6 °F 3.2 °F 79% 30.00 in 10.0 mi North - - N/A   Scattered Clouds
8:15 PM 8.6 °F 3.2 °F 79% 30.00 in 10.0 mi North - - N/A   Scattered Clouds
8:35 PM 8.6 °F 3.2 °F 79% 30.00 in 10.0 mi North - - N/A   Clear
8:55 PM 8.6 °F 3.2 °F 79% 30.00 in 10.0 mi North - - N/A   Scattered Clouds
9:15 PM 8.6 °F 3.2 °F 79% 30.00 in 10.0 mi North - - N/A   Scattered Clouds
9:35 PM 6.8 °F 3.2 °F 85% 30.00 in 10.0 mi North - - N/A   Clear
9:55 PM 6.8 °F 3.2 °F 85% 30.00 in 10.0 mi North - - N/A   Clear
10:15 PM 6.8 °F 3.2 °F 85% 30.00 in 10.0 mi North - - N/A   Clear
10:35 PM 8.6 °F 3.2 °F 79% 30.00 in 10.0 mi North - - N/A   Mostly Cloudy
10:55 PM 8.6 °F 5.0 °F 85% 30.00 in 10.0 mi North - - N/A   Overcast
11:15 PM 8.6 °F 5.0 °F 85% 30.00 in 10.0 mi North - - N/A   Overcast
11:35 PM 10.4 °F 5.0 °F 79% 29.99 in 10.0 mi North - - N/A   Overcast
11:55 PM 10.4 °F 5.0 °F 79% 29.99 in 10.0 mi North - - N/A   Overcast